Terug naar catalogus

STARLINK-6360

ActiefCommunicatieVLEO
NORAD 57235·PAYLOAD·🇺🇸 United States

Gelanceerd Jul 7, 2023 vanaf Vandenberg Space Force Base

Loading…

Volgende Passages (komende 24 uur)

TLE

VersSource: CelesTrak SupGP

Epoch: Sep 15, 2026, 03:10 UTC

1 57235C 23094T   26258.13243056 -.00063310  00000+0 -22933-2 0  2580
2 57235  43.0019  40.8108 0001388 263.8405 277.4737 15.27607109    16

Volg STARLINK-6360 in realtime met AllMySat

Download on the App Store